SCP
7 6 5 3 2 2 2 2 2 2 2 2 2 2 3 5 5 5 4 4 4 4 5 6 6 8 9 9 9 9 8 15 19 11 1 1 0 0 0 0 0 0 0
6 5 4 3 2 2 2 2 2 1 2 2 2 2 3 5 5 5 4 4 4 5 5 6 7 8 9 10 10 10 9 18 26 13 1 0 0 0 0 0 0 0 1
5 4 3 3 3 3 3 2 2 1 2 2 2 2 3 4 4 4 4 4 4 5 5 6 7 8 9 10 11 11 10 14 16 9 1 0 0 0 0 0 0 1 1
5 5 4 3 4 4 3 2 2 2 2 2 2 2 3 3 3 3 3 3 3 4 4 5 6 6 7 8 9 9 9 8 6 3 1 0 0 0 0 0 0 0 0
7 6 5 4 4 4 3 3 2 2 2 2 2 2 2 2 2 3 2 2 2 2 3 3 4 5 5 5 6 7 7 7 5 3 1 0 0 0 0 0 0 0 0
9 8 6 5 5 4 4 3 3 2 3 3 2 1 1 1 2 2 2 1 1 1 1 2 2 2 3 3 3 4 4 5 4 3 1 0 0 0 0 0 0 1 1
10 9 7 6 5 4 4 3 3 3 3 3 2 1 1 1 1 1 1 1 0 0 0 1 1 1 1 2 2 2 3 3 3 2 1 1 0 0 0 1 1 1 1
11 9 8 6 5 5 4 3 3 3 3 3 2 1 1 1 1 1 1 0 0 0 0 0 1 1 1 1 2 2 2 2 2 1 1 1 1 0 0 1 1 1 2
12 10 9 7 6 6 5 4 3 3 2 2 1 1 1 1 1 1 1 1 1 1 0 0 1 1 1 1 1 2 2 2 1 1 1 1 0 0 0 0 1 1 2
15 12 9 8 7 7 6 5 4 3 2 2 1 1 1 1 1 1 1 1 1 1 1 0 0 0 0 0 1 1 1 1 1 1 1 0 0 0 0 0 1 1 2
16 12 9 7 7 7 7 6 5 4 3 3 2 1 1 1 0 1 1 1 1 1 1 0 0 0 0 0 0 0 1 1 1 1 0 0 0 0 0 1 1 2 2
15 11 8 7 7 7 8 7 6 5 5 4 3 3 2 1 0 0 1 1 1 1 1 0 0 0 0 0 0 0 0 0 0 0 0 0 0 1 1 2 2 2 2
12 10 7 7 7 7 8 8 7 6 6 5 5 4 3 2 1 0 1 1 1 0 0 0 0 0 0 0 0 0 0 0 0 0 0 1 1 1 2 2 2 2 2
10 9 8 8 8 8 8 8 7 7 6 6 6 6 5 3 2 1 1 0 0 0 0 0 0 0 0 0 0 0 0 0 0 0 1 1 2 2 2 2 1 1 1
9 9 10 10 9 9 8 7 6 5 5 6 6 7 6 4 3 2 1 0 0 0 0 0 0 0 0 0 0 0 1 1 1 1 1 2 2 1 1 0 0 0 0
9 10 10 10 10 10 9 7 5 4 4 4 5 5 5 4 2 1 1 0 0 0 0 0 0 0 0 0 1 1 1 1 2 1 1 1 1 0 0 0 0 0 0
9 9 8 8 10 11 10 9 6 4 3 2 2 3 3 2 1 1 0 0 0 0 0 0 0 1 1 1 1 1 1 1 1 1 0 0 0 0 0 0 0 0 0
8 7 7 7 8 10 11 11 9 7 5 2 1 1 1 1 0 0 0 0 0 0 0 0 1 1 1 1 1 1 1 0 0 0 0 0 0 0 0 0 0 0 0
8 7 6 6 7 8 10 11 10 9 8 5 2 1 0 0 0 0 0 0 1 1 0 0 1 1 1 1 1 1 0 0 0 0 0 0 0 0 0 0 0 0 0
9 8 7 6 5 5 7 9 10 10 10 8 5 2 0 0 0 0 0 0 1 1 1 0 0 1 1 1 0 0 0 0 0 0 0 0 0 0 0 0 0 0 0
9 8 6 5 4 3 4 6 7 8 9 9 7 3 0 0 0 0 0 0 0 0 0 0 0 0 0 0 0 0 0 0 0 0 0 0 0 0 0 0 0 0 0
8 7 6 5 4 3 3 3 4 5 6 7 6 3 0 0 0 0 0 0 0 0 0 0 0 0 0 0 0 0 0 0 0 0 0 0 0 0 0 0 0 0 0
7 7 6 5 3 3 2 3 3 4 4 4 4 2 0 0 0 0 0 0 0 0 0 0 0 0 0 0 0 0 0 0 0 0 0 0 0 1 1 1 0 0 0
7 7 6 4 3 3 3 3 3 3 3 3 3 2 0 0 0 0 0 0 0 0 0 0 0 0 0 0 0 0 0 0 0 0 0 0 0 0 0 1 1 1 1
7 6 4 2 2 2 2 2 2 2 2 2 2 1 1 0 0 0 0 0 0 0 0 0 0 0 0 0 0 0 0 0 0 0 0 0 0 0 0 0 0 0 0
6 4 3 1 1 1 1 1 1 1 1 1 1 1 1 0 0 0 0 0 0 0 0 0 0 0 0 0 0 0 0 0 0 0 0 0 0 0 0 0 0 0 0
Wind_Speed
8 6 6 5 5 4 4 4 4 3 3 3 3 3 3 2 2 2 2 2 2 1 1 1 1 1 1 1 1 1 2 2 3 1 1 1 2 2 2 2 1 1 2
8 6 6 5 5 4 4 4 4 4 3 3 3 3 3 3 3 3 2 2 2 2 1 1 1 1 1 1 1 1 1 2 3 2 1 1 2 3 2 2 2 2 2
8 7 6 5 5 5 4 3 3 4 3 3 4 4 3 3 3 2 2 2 2 2 2 2 1 2 1 1 1 1 1 1 2 2 2 1 1 2 2 1 1 1 2
8 8 7 7 6 6 5 4 4 4 4 4 4 4 3 3 3 3 2 2 2 1 1 1 1 2 2 2 2 2 2 2 2 2 1 1 1 1 2 2 1 1 2
8 8 7 6 5 5 5 4 4 4 4 4 4 3 3 3 3 3 3 3 2 1 0 1 1 2 2 2 2 2 3 2 2 2 1 1 1 1 2 2 2 1 1
8 8 6 6 6 5 5 4 4 3 3 3 3 3 3 2 4 5 4 3 2 2 1 0 1 1 1 1 2 3 4 4 4 3 2 3 3 3 2 3 2 1 2
7 7 6 7 6 6 6 5 5 4 3 3 3 3 3 3 5 6 5 3 2 2 2 1 1 1 1 1 1 0 1 3 5 5 4 4 4 4 4 4 3 3 4
7 7 7 7 7 6 6 5 4 3 3 3 3 3 3 3 6 6 5 3 2 2 2 2 2 1 1 1 1 1 1 1 2 3 4 4 4 3 4 5 4 2 1
7 7 7 7 7 7 6 6 5 4 4 3 3 3 3 3 5 5 4 2 2 2 1 2 3 2 2 2 2 1 1 2 2 1 2 3 3 3 3 2 2 2 1
7 7 7 7 8 8 8 6 4 4 4 4 3 3 4 3 4 5 5 3 2 1 1 1 3 3 3 3 3 2 2 3 1 1 2 2 1 2 3 4 4 4 2
6 6 6 6 7 7 6 5 5 4 4 3 3 3 3 3 4 5 5 3 3 2 2 2 2 4 3 4 4 4 5 3 2 1 1 1 1 2 2 2 3 4 4
5 5 5 5 6 5 6 5 5 5 4 3 3 2 2 2 4 4 5 5 5 3 3 2 2 3 4 3 3 3 4 2 1 1 1 2 2 2 3 3 3 3 4
5 5 5 5 4 5 6 6 5 5 4 4 3 3 3 2 3 5 5 5 6 3 3 4 3 3 3 2 3 3 2 1 1 1 2 3 3 3 2 1 1 1 1
5 5 4 5 4 4 4 5 5 5 5 4 4 4 3 2 2 2 2 2 3 2 2 3 3 2 2 2 2 2 2 2 3 3 3 3 2 1 1 1 1 0 0
4 4 4 4 4 4 3 3 5 5 6 6 5 5 5 5 6 7 5 4 4 3 2 1 0 0 1 1 2 2 2 2 2 3 2 2 1 1 1 1 1 1 1
3 3 4 4 3 3 3 2 0 2 4 6 6 6 5 6 7 8 8 7 6 6 4 2 2 2 3 3 3 3 3 3 3 3 3 3 3 3 2 1 1 1 2
3 3 3 3 4 4 4 4 2 1 1 2 4 6 5 6 7 8 8 7 6 7 3 3 3 4 4 4 4 4 4 4 3 3 3 3 3 3 2 2 2 1 2
1 2 2 3 3 3 3 3 3 3 2 1 2 3 5 6 7 7 7 5 2 3 3 4 4 4 4 4 4 4 4 3 3 3 3 3 3 3 3 3 3 3 2
1 1 1 1 2 2 3 3 3 3 3 2 1 1 1 2 3 4 6 4 4 4 4 4 4 4 4 4 4 4 3 3 3 3 3 3 3 3 3 3 3 4 3
1 1 1 1 1 1 2 2 2 2 2 2 2 2 1 2 1 2 3 3 3 4 4 4 4 4 4 3 3 3 2 2 3 3 3 3 3 3 3 4 3 3 3
1 1 1 1 1 1 1 2 2 3 3 3 3 3 5 4 4 4 4 5 5 5 5 5 4 4 4 3 3 3 3 3 3 3 2 3 3 3 3 3 3 3 2
1 1 1 2 1 1 2 2 2 3 3 3 2 3 6 3 3 3 4 5 5 5 4 4 3 3 3 3 4 3 3 3 3 2 2 2 2 2 2 2 3 3 2
1 2 1 1 1 2 1 1 2 2 2 2 2 2 3 4 3 3 4 4 3 3 3 3 3 3 3 3 3 4 4 4 3 3 3 3 2 2 2 2 3 2 3
1 1 1 1 1 1 1 1 2 2 2 2 3 3 3 3 3 4 4 3 3 3 3 3 3 4 4 3 2 3 3 3 3 3 4 4 3 3 2 2 3 3 3
2 1 1 1 1 2 2 2 2 2 2 2 2 2 3 3 3 4 3 3 3 3 3 3 3 3 4 4 3 2 3 4 3 3 3 3 3 3 3 3 3 3 2
2 2 2 1 1 2 2 2 2 2 2 2 2 2 2 3 3 3 3 2 2 2 3 2 3 3 3 3 3 3 3 4 4 4 3 3 3 3 3 3 4 3 3
Wind_Direction
177 176 172 174 172 167 168 176 172 166 159 159 158 146 138 131 127 124 129 133 145 159 168 156 189 171 152 155 158 155 158 152 169 231 209 189 180 183 168 177 174 176 181
178 172 174 172 166 167 172 173 164 163 168 163 148 138 137 131 126 131 142 134 144 154 164 144 182 157 131 152 149 160 168 161 156 185 214 191 197 194 186 185 185 178 193
172 170 171 171 170 172 171 169 164 162 157 143 136 140 141 138 134 137 144 148 152 162 163 163 187 146 163 180 168 164 172 149 141 162 202 203 198 186 165 189 183 200 211
170 170 172 176 175 174 170 166 162 154 146 142 138 142 142 137 133 134 138 138 135 140 156 164 180 173 189 186 179 169 153 134 130 149 177 187 195 197 150 177 210 253 239
169 172 179 176 167 165 166 162 152 146 149 144 135 135 140 139 145 146 152 150 138 127 138 184 188 168 169 180 178 178 162 157 155 161 170 171 205 180 202 197 196 220 271
169 177 174 165 160 160 158 150 141 139 137 132 139 145 151 158 161 165 160 153 155 157 175 249 219 156 141 137 168 184 174 171 180 178 191 197 217 209 197 187 173 167 258
167 168 166 162 158 164 161 148 151 153 141 141 155 154 161 179 174 170 169 158 167 185 184 187 198 129 102 84 73 132 193 191 185 184 195 212 207 206 189 190 188 192 215
163 164 165 164 163 165 156 156 158 155 158 161 171 174 171 192 181 175 168 157 168 193 193 182 169 165 195 156 130 55 8 276 220 194 197 215 218 215 200 196 195 190 260
168 171 171 168 165 166 168 170 169 165 167 172 173 173 173 197 188 177 160 146 165 203 213 190 176 184 212 168 138 149 309 300 291 217 209 226 230 219 193 159 164 160 223
181 179 175 171 172 176 179 176 172 169 174 164 162 175 177 191 194 179 166 157 172 198 216 217 201 200 211 186 178 187 227 257 270 316 321 319 298 259 205 186 185 180 186
177 169 169 175 180 178 173 169 164 165 160 161 170 182 184 192 197 186 173 164 174 181 199 223 235 213 211 207 197 204 222 226 225 224 251 277 291 278 252 220 193 181 187
160 166 171 178 181 172 164 166 165 163 164 172 176 186 207 198 191 197 187 183 174 171 203 217 230 229 222 219 220 226 222 213 204 201 222 246 246 250 253 242 223 213 206
156 171 176 175 180 172 170 172 169 169 177 187 187 197 216 218 211 202 193 186 179 179 204 209 214 231 233 238 244 233 209 191 189 206 229 239 236 235 247 270 277 245 269
169 178 178 178 182 177 178 179 179 182 187 191 194 203 208 207 211 209 208 202 194 190 207 222 216 232 239 255 264 252 225 211 205 220 232 240 237 217 223 225 229 199 336
172 177 179 182 181 182 186 190 191 195 194 193 199 194 191 209 219 203 188 199 199 194 161 121 50 311 282 277 269 266 253 237 232 236 232 234 229 216 229 221 201 178 197
162 180 185 183 181 178 173 168 42 194 203 203 201 196 208 213 202 195 199 201 194 170 148 172 209 221 226 231 236 246 244 237 233 229 228 221 217 219 224 213 194 194 216
171 182 184 181 180 180 178 174 179 326 34 205 207 206 207 204 195 194 200 198 188 163 169 206 216 222 229 231 231 233 238 237 223 216 221 222 215 211 204 206 208 212 231
157 175 172 181 177 175 179 180 176 177 188 255 276 232 214 206 202 199 186 158 179 190 206 212 220 224 227 230 231 234 241 241 222 215 220 222 213 201 199 204 207 209 221
113 126 146 138 153 166 169 169 176 186 196 205 206 302 242 199 187 189 168 178 199 211 216 219 220 223 229 231 234 234 234 234 227 216 217 218 212 198 203 209 211 221 217
113 85 101 115 114 137 166 169 180 183 189 193 199 194 140 121 163 196 203 217 217 224 223 223 223 221 225 233 239 232 226 229 224 215 213 212 207 195 202 210 207 206 215
151 127 111 121 150 182 193 185 185 188 197 203 206 196 173 184 197 207 209 217 221 222 222 223 221 221 221 216 220 222 219 222 219 212 209 209 201 196 199 202 209 212 214
175 177 185 193 194 203 214 205 194 191 201 206 212 200 196 202 202 214 221 225 227 227 224 217 218 223 222 213 206 205 213 221 220 208 200 207 208 202 199 202 208 211 208
169 171 191 210 195 187 194 201 202 196 202 208 203 196 198 216 220 217 226 232 234 232 226 218 220 231 229 219 213 207 211 217 209 192 190 200 203 196 191 198 207 207 208
184 187 193 205 193 188 197 217 223 222 218 212 209 205 208 216 226 231 230 229 225 226 221 218 221 226 222 217 217 212 211 212 201 193 187 191 200 201 192 193 205 209 208
187 184 184 203 198 193 196 213 226 229 232 232 222 216 215 218 226 237 240 234 227 227 229 225 225 225 219 211 205 209 217 208 205 193 182 186 197 203 201 201 201 197 200
187 188 188 187 187 192 201 217 228 233 235 241 234 225 224 223 228 233 234 229 223 222 224 226 230 225 223 220 217 208 207 208 206 201 185 181 192 205 200 201 199 201 204